This demonstration page uses our WeatherBlox Daily Observations layout. Learn more.

Left ArrowRight Arrow

39.08367, -84.50855

Hourly Observations for March 13, 2016

Temp ( °F °C ) Dew Point ( °F °C ) Humidity (%) Winds ( mph kmh ) Pressure ( in mb ) Visibility ( mi km ) Precip ( " mm )
12:14 am 00:14 Cloudy with Light Rain 55 13 55 13 100 100 NE 3 6 29.97 1015 2 3.21868 N/A
12:27 am 00:27 Mostly Cloudy with Light Rain 55 13 55 13 100 100 N N/A 29.97 1015 4 6.43736 N/A
12:53 am 00:53 Mostly Cloudy with Light Rain 56 13.3 56 13.3 100 100 N N/A 29.96 1014 5 8.0467 0.01 0.254
1:53 am 01:53 Cloudy with Light Rain 57 13.9 57 13.9 100 100 N N/A 29.94 1014 3 4.82802 0.01 0.254
3:03 am 03:03 Cloudy with Light Rain 57 14 55 13 94 94 N 3 6 29.91 1013 2.5 4.02335 N/A
3:06 am 03:06 Cloudy with Light Rain 57 13.9 57 13.9 100 100 NNW 5 7 29.91 1013 3 4.82802 0.01 0.254
3:42 am 03:42 Cloudy with Heavy Rain 55 13 55 13 100 100 N N/A 29.94 1014 0.75 1.207005 N/A
3:48 am 03:48 Cloudy with Heavy Rain 57 14 57 14 100 100 NW 5 7 29.91 1013 0.75 1.207005 N/A
3:49 am 03:49 Cloudy with Heavy Rain 57 14 57 14 100 100 NW 3 6 29.91 1013 1 1.60934 N/A
3:53 am 03:53 Cloudy with Rain 57 13.9 57 13.9 100 100 N N/A 29.92 1013 1.75 2.816345 0.39 9.906
3:56 am 03:56 Cloudy with Rain 57 14 57 14 100 100 N N/A 29.91 1013 3 4.82802 N/A
4:17 am 04:17 Cloudy with Rain 57 13.9 57 13.9 100 100 N N/A 29.91 1013 2.5 4.02335 0.07 1.778
4:43 am 04:43 Cloudy with Rain 57 13.9 57 13.9 100 100 N 3 6 29.91 1013 2 3.21868 0.15 3.81
4:53 am 04:53 Cloudy with Rain 57 13.9 57 13.9 100 100 NNE 5 7 29.9 1013 2.5 4.02335 0.17 4.318
4:56 am 04:56 Cloudy with Rain 57 14 57 14 100 100 NE 3 6 29.91 1013 3 4.82802 N/A
5:07 am 05:07 Cloudy with Light Rain 57 13.9 57 13.9 100 100 N N/A 29.91 1013 2.5 4.02335 0.02 0.508
5:27 am 05:27 Cloudy with Light Rain 57 13.9 57 13.9 100 100 N N/A 29.91 1013 3 4.82802 0.04 1.016
5:37 am 05:37 Cloudy with Light Rain 57 13.9 57 13.9 100 100 N N/A 29.91 1013 1.75 2.816345 0.05 1.27
5:53 am 05:53 Cloudy with Light Rain 56 13.3 56 13.3 100 100 N N/A 29.9 1012 2 3.21868 0.06 1.524
6:04 am 06:04 Cloudy with Light Rain 57 14 57 14 100 100 NE 3 6 29.88 1012 1.75 2.816345 N/A
6:15 am 06:15 Cloudy with Light Rain 56 13.3 56 13.3 100 100 NE 5 7 29.91 1013 0.5 0.80467 0.02 0.508
6:26 am 06:26 Cloudy with Light Rain 57 14 57 14 100 100 NNE 6 9 29.88 1012 1.75 2.816345 N/A
6:30 am 06:30 Cloudy with Light Rain 57 14 57 14 100 100 NNE 5 7 29.88 1012 3 4.82802 N/A
6:53 am 06:53 Mostly Cloudy with Mist and Fog 55 12.8 55 12.8 100 100 SSE 3 6 29.87 1011 1 1.60934 0.02 0.508
6:55 am 06:55 Mostly Cloudy with Mist and Fog 55 12.8 55 12.8 100 100 SSE 5 7 29.91 1013 0.75 1.207005 N/A
7:04 am 07:04 Mostly Cloudy with Light Rain 55 13 55 13 100 100 N N/A 29.91 1013 1 1.60934 N/A
7:13 am 07:13 Cloudy with Light Rain 56 13.3 56 13.3 100 100 N N/A 29.91 1013 1 1.60934 N/A
7:20 am 07:20 Mostly Cloudy with Light Rain 55 13 55 13 100 100 N N/A 29.91 1013 0.25 0.402335 N/A
7:32 am 07:32 Cloudy with Fog 55 13 55 13 100 100 N N/A 29.88 1012 0.5 0.80467 N/A
7:53 am 07:53 Cloudy with Mist and Fog 56 13.3 56 13.3 100 100 N N/A 29.85 1011 1 1.60934 N/A
8:53 am 08:53 Partly Cloudy with Patchy Fog 56 13.3 56 13.3 100 100 N N/A 29.85 1011 3 4.82802 N/A
9:53 am 09:53 Cloudy with Patchy Fog 58 14.4 58 14.4 100 100 N N/A 29.84 1011 3 4.82802 N/A
10:53 am 10:53 Cloudy with Mist and Fog 58 14.4 58 14.4 100 100 N N/A 29.83 1010 3 4.82802 N/A
11:53 am 11:53 Cloudy with Light Rain 60 15.6 60 15.6 100 100 N N/A 29.82 1010 6 9.65604 N/A
12:53 pm 12:53 Cloudy with Rain 61 16.1 60 15.6 97 97 N N/A 29.81 1009 2 3.21868 0.06 1.524
1:53 pm 13:53 Cloudy with Light Rain 61 16.1 61 16.1 100 100 N N/A 29.79 1009 2 3.21868 0.1 2.54
2:07 pm 14:07 Cloudy with Light Rain 61 16.1 60 15.6 97 97 N N/A 29.8 1009 6 9.65604 0.01 0.254
2:53 pm 14:53 Cloudy with Light Rain 61 16.1 60 15.6 97 97 N N/A 29.76 1008 3 4.82802 0.01 0.254
3:24 pm 15:24 Cloudy with Light Rain 61 16 61 16 100 100 N N/A 29.77 1008 2 3.21868 N/A
3:53 pm 15:53 Cloudy with Light Rain 61 16.1 61 16.1 100 100 N N/A 29.75 1007 2 3.21868 0.01 0.254
4:53 pm 16:53 Cloudy with Light Rain 61 16.1 61 16.1 100 100 N N/A 29.75 1007 2 3.21868 0.02 0.508
5:19 pm 17:19 Cloudy with Mist and Fog 62 16.7 61 16.1 96 96 N N/A 29.74 1007 3 4.82802 0.01 0.254
5:53 pm 17:53 Cloudy 62 16.7 62 16.7 100 100 SW 3 6 29.74 1007 10 16.0934 0.01 0.254
6:30 pm 18:30 Mostly Sunny 63 17.2 61 16.1 93 93 N N/A 29.74 1007 10 16.0934 N/A
6:53 pm 18:53 Mostly Cloudy 62 16.7 62 16.7 100 100 N N/A 29.73 1007 9 14.48406 N/A
7:53 pm 19:53 Cloudy 61 16.1 61 16.1 100 100 N N/A 29.74 1007 9 14.48406 N/A
8:18 pm 20:18 Partly Cloudy with Fog 59 15 59 15 100 100 N N/A 29.74 1007 3 4.82802 N/A
8:26 pm 20:26 Partly Cloudy with Fog 59 15 59 15 100 100 N N/A 29.74 1007 3 4.82802 N/A
8:30 pm 20:30 Mostly Clear with Fog 59 15 59 15 100 100 N N/A 29.74 1007 2 3.21868 N/A
8:33 pm 20:33 Mostly Cloudy with Fog 59 15 59 15 100 100 N N/A 29.74 1007 1 1.60934 N/A
8:36 pm 20:36 Mostly Cloudy with Fog 58 14.4 58 14.4 100 100 N N/A 29.74 1007 0.5 0.80467 N/A
8:44 pm 20:44 Mostly Cloudy with Fog 57 14 57 14 100 100 N N/A 29.74 1007 0.25 0.402335 N/A
8:53 pm 20:53 Mostly Cloudy with Fog 57 13.9 57 13.9 100 100 N N/A 29.74 1007 0.25 0.402335 N/A
9:53 pm 21:53 Mostly Cloudy with Fog 55 12.8 55 12.8 100 100 N N/A 29.74 1007 0.25 0.402335 N/A
10:53 pm 22:53 Mostly Cloudy with Fog 55 12.8 55 12.8 100 100 N N/A 29.74 1007 0.25 0.402335 N/A
11:36 pm 23:36 Mostly Cloudy with Fog 54 12 54 12 100 100 N N/A 29.77 1008 0.5 0.80467 N/A
11:53 pm 23:53 Cloudy with Fog 54 12.2 54 12.2 100 100 N N/A 29.75 1007 0.5 0.80467 N/A

Powered by AerisWeather